West Paducah, KY

8:53 AM CDT on August 27, 2016 (GMT -0500)
Barkley Regional

Weather History for KPAH - September, 2014

Change the Weather History Date:

Friday, September 19, 2014

  Actual Average Record
Temperature  
Mean Temperature 72 °F 69 °F  
Max Temperature 86 °F 81 °F 97 °F (1954)
Min Temperature 57 °F 56 °F 41 °F (1973)
Degree Days  
Heating Degree Days 0 1  
Month to date heating degree days 17 7  
Since 1 July heating degree days 17 8  
Cooling Degree Days 7 5  
Month to date cooling degree days 152 145  
Year to date cooling degree days 1623 1458  
Growing Degree Days 22 (Base 50)    
Moisture  
Dew Point 58 °F    
Average Humidity 64    
Maximum Humidity 87    
Minimum Humidity 40    
Precipitation  
Precipitation 0.00 in 0.13 in 1.20 in (1970)
Month to date precipitation 0.91 2.29  
Year to date precipitation 37.68 34.77  
Snow  
Snow 0.00 in 0.00 in - ()
Month to date snowfall 0.0 0.0  
Since 1 July snowfall 0.0 0.0  
Since 1 September snowfall 0.0 0.0  
Snow Depth 0.00 in    
Sea Level Pressure  
Sea Level Pressure 30.03 in    
Wind  
Wind Speed 2 mph (ENE)    
Max Wind Speed 12 mph    
Max Gust Speed 15 mph    
Visibility 9 miles    
Events      
T = Trace of Precipitation, MM = Missing Value Source: NWS Daily Summary

Daily Weather History Graph

Daily Weather History Graph

Search for Another Location

Airport or City:

Trip Planner

Search our weather history database for the weather conditions in past years. The results will help you decide how hot, cold, wet, or windy it might be!

Date:

Astronomy

Sep. 19, 2014 Rise Set
Actual Time 6:40 AM CDT 6:56 PM CDT
Civil Twilight 6:14 AM CDT 7:22 PM CDT
Nautical Twilight 5:44 AM CDT 7:52 PM CDT
Astronomical Twilight 5:13 AM CDT 8:23 PM CDT
Moon 2:30 AM CDT (9/19) 4:21 PM CDT (9/19)
Length of Visible Light 13h 08m
Length of Day
12h 16m
Waning Crescent, 18% of the Moon is Illuminated
Sep 19
Waning Crescent
Sep 24
New
Oct 1
First Quarter
Oct 8
Full
Oct 15
Last Quarter

Hourly Weather History & Observations

Time (CDT) Temp. Heat Index Dew Point Humidity Pressure Visibility Wind Dir Wind Speed Gust Speed Precip Events Conditions
12:53 AM 62.1 °F - 54.0 °F 75% 30.04 in 7.0 mi Calm Calm - N/A   Clear
1:53 AM 60.1 °F - 53.1 °F 78% 30.04 in 8.0 mi Calm Calm - N/A   Clear
2:53 AM 60.1 °F - 54.0 °F 80% 30.04 in 7.0 mi Calm Calm - N/A   Clear
3:53 AM 59.0 °F - 54.0 °F 83% 30.03 in 8.0 mi Calm Calm - N/A   Clear
4:53 AM 59.0 °F - 53.1 °F 81% 30.03 in 7.0 mi Calm Calm - N/A   Clear
5:53 AM 59.0 °F - 53.1 °F 81% 30.04 in 6.0 mi Calm Calm - N/A   Haze
6:53 AM 57.0 °F - 53.1 °F 87% 30.05 in 7.0 mi Calm Calm - N/A   Clear
7:53 AM 64.4 °F - 55.4 °F 73% 30.07 in 6.0 mi NE 3.5 mph - N/A   Haze
8:53 AM 68.0 °F - 57.9 °F 70% 30.07 in 9.0 mi East 4.6 mph - N/A   Clear
9:53 AM 73.0 °F - 57.9 °F 59% 30.08 in 10.0 mi ENE 5.8 mph - N/A   Clear
10:53 AM 75.9 °F - 59.0 °F 56% 30.08 in 10.0 mi Variable 3.5 mph - N/A   Clear
11:53 AM 81.0 °F 81.3 °F 59.0 °F 47% 30.07 in 10.0 mi NE 5.8 mph - N/A   Clear
12:53 PM 82.0 °F 81.7 °F 57.0 °F 42% 30.04 in 10.0 mi ESE 4.6 mph - N/A   Clear
1:53 PM 82.9 °F 82.6 °F 57.9 °F 42% 30.03 in 10.0 mi Variable 4.6 mph - N/A   Clear
2:53 PM 84.9 °F 84.2 °F 57.9 °F 40% 30.00 in 10.0 mi Variable 4.6 mph - N/A   Clear
3:53 PM 84.9 °F 84.2 °F 57.9 °F 40% 30.00 in 10.0 mi East 4.6 mph - N/A   Clear
4:53 PM 84.0 °F 83.8 °F 59.0 °F 43% 29.99 in 10.0 mi ESE 6.9 mph - N/A   Clear
5:53 PM 82.0 °F 83.0 °F 62.1 °F 51% 30.00 in 10.0 mi Calm Calm - N/A   Clear
6:53 PM 75.9 °F - 63.0 °F 64% 29.99 in 10.0 mi Calm Calm - N/A   Clear
7:53 PM 71.1 °F - 63.0 °F 75% 30.00 in 10.0 mi Calm Calm - N/A   Clear
8:53 PM 66.2 °F - 60.8 °F 83% 30.01 in 10.0 mi Calm Calm - N/A   Clear
9:53 PM 64.9 °F - 61.0 °F 87% 30.02 in 9.0 mi Calm Calm - N/A   Clear
10:53 PM 64.9 °F - 60.1 °F 84% 30.03 in 8.0 mi Calm Calm - N/A   Clear
11:53 PM 64.0 °F - 60.1 °F 87% 30.03 in 4.0 mi Calm Calm - N/A   Clear